Location: Cabeza Lijar
(40.6914°N, 4.1577°W)
Time: 01:19:12
(UTC+00:00)

Daily predictions for brighter satellites

Satellite Brightness Start Highest point End
(mag) Time Altitude Azimuth Time Altitude Azimuth Time Altitude Azimuth
SL-08 ROCKET BODY 4.2 00:00:45 10° N 00:06:39 86° E 00:06:46 85° ESE
Cosmos 1461 4.3 00:03:05 10° NNW 00:06:31 35° NE 00:06:31 35° NE
Cosmos 1244 Rocket 4.4 00:00:45 10° N 00:07:05 74° E 00:07:36 70° ESE
Nadezhda 2 Rocket 4.3 00:02:40 10° N 00:08:51 80° E 00:09:13 76° SE
ATLAS CENTAUR R/B 2.4 00:10:22 10° NW 00:13:59 50° NW 00:13:59 50° NW
Cosmos 2322 Rocket 4.4 00:15:21 11° W 00:18:55 19° NW 00:22:51 10° N
Cosmos 2333 Rocket 2.8 00:19:42 44° W 00:20:31 47° WNW 00:25:59 10° NNE
Cosmos 2322 3.8 00:20:48 63° W 00:21:08 64° WNW 00:26:51 10° NNE
ATLAS 5 CENTAUR R/B 3.7 00:10:40 10° NW 00:22:51 49° NNE 00:24:40 33° E
CZ-4C R/B 3.2 00:16:36 10° NNW 00:24:00 68° NE 00:27:53 35° SE
Cosmos 1818 4.2 00:19:57 10° NW 00:24:10 45° WNW 00:24:10 45° WNW
Cosmos 1844 Rocket 3.9 00:22:41 10° NW 00:26:32 28° W 00:26:32 28° W
USA 215 4.4 00:23:17 10° NE 00:29:18 41° NNW 00:35:21 10° W
NOSS 0 Rocket 4.1 00:29:23 58° ESE 00:29:25 58° ESE 00:35:32 10° NNE
PSLV R/B 4.2 00:31:31 10° N 00:35:00 55° N 00:35:00 55° N
ALOS 2 4.5 00:38:34 22° WNW 00:38:34 22° WNW 00:40:52 10° NW
Cosmos 2151 Rocket 4.3 00:37:35 10° N 00:40:53 50° NNW 00:40:53 50° NNW
ADEOS Rocket 3.2 00:42:18 48° W 00:42:18 48° W 00:47:42 10° NNW
Cosmos 2219 Rocket 3.0 00:42:57 37° W 00:43:49 40° WNW 00:49:04 10° N
Cosmos 1745 Rocket 3.9 00:37:36 10° N 00:43:50 71° E 00:44:35 64° SE
Okean 2 Rocket 3.9 00:41:49 10° NNW 00:45:14 47° NW 00:45:14 47° NW
Meteor 1-16 Rocket 4.2 00:45:40 10° N 00:51:37 82° E 00:52:02 76° SE
Lacrosse 5 3.3 00:58:31 26° E 00:58:31 26° E 01:01:36 10° ENE
GP-B 4.2 00:54:21 10° NNE 00:58:07 38° ENE 00:58:07 38° ENE
SL-14 R/B 4.5 01:02:27 40° NNE 01:02:27 40° NNE 01:05:01 10° N
CZ-2D R/B 3.6 00:57:26 10° NE 01:01:47 25° E 01:02:28 24° ESE
Cosmos 1300 4.2 00:58:51 10° N 01:01:27 34° NE 01:01:27 34° NE
USA 267 3.1 01:02:15 63° S 01:03:04 70° SW 01:09:37 10° NW
Cosmos 883 Rocket 4.4 01:04:14 64° SSE 01:05:09 75° E 01:11:28 10° N
ASTEX 1 4.2 01:00:50 10° N 01:05:07 40° WNW 01:05:07 40° WNW
Cosmos 371 Rocket 3.4 01:06:03 72° NNW 01:06:03 72° NNW 01:10:31 10° NNE
Cosmos 2150 Rocket 3.9 01:06:08 76° NW 01:06:08 76° NW 01:11:12 10° NNE
USA 305 3.8 01:07:08 47° NNE 01:07:08 47° NNE 01:10:18 10° NE
USA 229 DEB 3.9 01:03:53 10° NNW 01:11:23 85° NE 01:15:06 35° SE
USA 229 3.9 01:04:00 10° NNW 01:11:29 84° NE 01:15:14 35° SE
Cosmos 2237 Rocket 2.0 01:11:28 81° SSW 01:11:46 89° ESE 01:17:31 10° NNE
COSMOS 2428 3.8 01:12:17 30° W 01:13:33 34° WNW 01:18:41 10° N
Cosmos 1048 Rocket 4.3 01:09:59 10° NNW 01:14:18 52° WNW 01:14:18 52° WNW
Cosmos 405 Rocket 4.5 01:18:03 26° NW 01:18:03 26° NW 01:20:13 10° N
Cosmos 304 Rocket 3.8 01:17:17 75° NE 01:17:17 75° NE 01:21:47 10° NNE
Cosmos 494 Rocket 4.3 01:12:39 10° NNW 01:17:00 54° WNW 01:17:00 54° WNW
SL-16 R/B 3.9 01:14:42 15° ESE 01:19:09 34° ENE 01:24:38 10° N
Lacrosse 5 rocket 3.5 01:21:54 17° E 01:21:54 17° E 01:23:18 10° ENE
Cosmos 1125 Rocket 3.8 01:20:00 54° WNW 01:20:10 54° WNW 01:25:17 10° N
Cosmos 1437 Rocket 4.3 01:17:15 10° NNW 01:19:16 28° NNW 01:19:16 28° NNW
NOSS 2-2 (E) 4.4 01:15:52 10° NW 01:21:27 78° WSW 01:23:11 53° SSE
SME Rocket 3.6 01:24:34 50° E 01:24:47 51° ENE 01:29:22 10° N
Okean 1 Rocket 3.8 01:20:41 10° NNW 01:24:05 45° NW 01:24:05 45° NW
Cosmos 1953 3.6 01:23:55 10° NNW 01:26:26 33° NW 01:26:26 33° NW
Resurs 1-4 Rocket 2.6 01:26:04 10° NNE 01:31:08 47° E 01:31:56 43° SE
MOZ.5/SAFIR/RUBIN 5/SL-8 3.7 01:33:59 86° E 01:34:01 87° E 01:38:48 10° NNW
Cosmos 1943 Rocket 3.6 01:28:55 10° N 01:34:06 35° ENE 01:39:15 10° SE
Cosmos 2315 Rocket 4.0 01:35:34 58° SW 01:36:48 74° W 01:43:13 10° N
NOSS 3-1 (A) 4.2 01:30:24 10° NW 01:38:02 58° WSW 01:40:38 44° S
Cosmos 1709 Rocket 3.9 01:32:12 10° NNW 01:38:18 71° W 01:39:18 60° SSW
Cosmos 2278 Rocket 2.3 01:39:54 10° NNW 01:45:23 53° WSW 01:45:23 53° WSW
EO 1 Delta rocket 4.1 01:41:03 10° N 01:45:40 58° WNW 01:46:02 56° W
ADEOS II 3.3 01:42:15 10° NNE 01:47:00 34° E 01:48:40 28° SE
IDEFIX/ARIANE 42P 4.1 01:43:20 10° NE 01:47:52 28° E 01:49:51 22° SE
USA 306 4.1 01:47:34 31° NW 01:48:19 34° NNW 01:52:08 10° NE
Cosmos 2084 Rocket 3.6 01:49:15 59° NNE 01:49:15 59° NNE 01:52:24 10° NNE
USA 307 4.0 01:51:04 33° NW 01:51:46 36° NNW 01:55:40 10° NE
ERBS 4.2 01:54:54 24° NNW 01:54:54 24° NNW 01:56:50 10° NNE
Thor Agena Rocket 3.8 01:50:11 10° N 01:55:20 55° WNW 01:56:09 49° WSW
Cosmos 2369 Rocket 4.5 01:54:46 10° N 01:59:07 23° NE 02:03:26 10° ESE
NPP 3.7 01:53:49 10° NNE 01:59:12 70° ESE 02:00:35 49° SSE
SL-16 R/B 2.2 01:58:00 53° S 01:59:17 73° ESE 02:04:57 10° NNE
Cosmos 1455 Rocket 3.1 01:58:56 10° NNW 02:03:14 63° W 02:03:14 63° W
CZ-4 R/B 3.6 01:59:27 10° NNE 02:04:07 85° WNW 02:04:41 69° SSW
COSMOS 2455 3.4 02:04:48 36° SSE 02:06:45 49° ESE 02:12:31 10° NE
Cosmos 1536 Rocket 4.3 02:08:03 39° SE 02:09:06 48° E 02:13:20 10° NNE
CZ-4C R/B 3.8 02:05:47 10° NW 02:12:24 31° WSW 02:12:59 31° WSW
Cosmos 1975 Rocket 3.9 02:16:47 36° W 02:16:53 36° WNW 02:21:00 10° N
Nadezhda 1 Rocket 4.3 02:15:05 29° SSE 02:18:24 64° E 02:24:38 10° NNE
Meteor 1-24 Rocket 3.7 02:17:04 47° SW 02:18:33 64° WNW 02:24:01 10° N
UNK 3.7 02:19:09 43° SSE 02:20:39 84° ENE 02:25:16 10° NNW
Meteor 2-10 Rocket 4.3 02:16:43 10° NNW 02:21:48 36° W 02:22:24 35° WSW
Cosmos 1025 Rocket 3.8 02:23:55 36° W 02:24:05 36° WNW 02:28:05 10° N
MOS 1 Rocket 3.0 02:23:22 43° SSE 02:24:43 79° ENE 02:29:01 10° N
MSX 4.5 02:19:31 10° NNE 02:25:07 50° E 02:28:24 24° SSE
YAOGAN 11 4.1 02:23:45 44° SSE 02:25:09 86° ENE 02:29:40 10° NNW
Cosmos 1455 1.9 02:23:23 10° N 02:27:06 90° E 02:27:23 76° S
Cosmos 1271 Rocket 3.5 02:27:08 10° N 02:30:51 48° ENE 02:32:45 26° SE
Cosmos 1269 Rocket 4.1 02:28:52 10° NNW 02:34:00 54° WSW 02:35:29 40° SSW
Lacrosse 5 2.5 02:37:42 29° W 02:39:58 48° NW 02:44:55 10° NE
CZ-2D R/B 2.8 02:36:56 10° N 02:41:56 41° WNW 02:43:47 31° WSW
Helios 1B rocket 4.3 02:42:41 10° NE 02:46:01 24° E 02:49:10 11° SSE
BREEZE-M DEB (TANK) 3.4 02:47:13 32° SSW 02:49:13 53° SSE 02:52:00 10° ENE
Cosmos 1544 Rocket 4.1 02:45:33 10° NNW 02:49:37 37° W 02:50:15 35° WSW
Cosmos 2154 Rocket 4.0 02:45:10 10° N 02:51:30 75° W 02:56:00 20° S
Cosmos 1943 3.8 02:50:42 21° S 02:54:21 53° ESE 02:59:52 10° NNE
Helios 1A 2.9 02:53:26 31° S 02:55:22 71° WSW 02:59:36 10° NNW
Cosmos 2237 Rocket 4.3 02:53:22 10° W 02:56:39 15° NW 02:59:58 10° NNW
Lacrosse 5 rocket 2.2 02:57:25 26° W 02:58:59 39° NW 03:02:50 10° NNE
SL-16 R/B 3.0 02:59:47 26° SSW 03:02:35 40° W 03:08:24 10° NNW
Lacrosse 4 Rocket 4.2 03:05:21 10° SE 03:06:52 12° ESE 03:08:23 10° E
Cosmos 1892 Rocket 4.4 03:04:42 12° SSE 03:08:33 48° E 03:12:51 10° NNE
Resurs 1-4 Rocket 3.6 03:06:37 10° NNW 03:10:37 22° WNW 03:13:01 17° W
Cosmos 1703 3.6 03:11:07 31° SW 03:12:35 47° W 03:16:24 10° N
Cosmos 1726 Rocket 4.1 03:10:19 10° N 03:14:41 58° E 03:18:59 10° SSE
NOSS 3-3 (A) 3.8 03:13:34 23° SSW 03:17:13 86° SE 03:23:33 10° NE
NOSS 3-3 (C) 3.8 03:13:40 23° SSW 03:17:19 86° ESE 03:23:39 10° NE
Cosmos 1943 Rocket 2.9 03:12:44 10° NW 03:17:45 33° WSW 03:20:53 20° SSW
Cosmos 2297 4.1 03:12:50 10° NW 03:18:16 43° WSW 03:23:19 11° S
FENGYUN 3A 4.5 03:14:06 10° NNE 03:19:18 48° E 03:24:29 10° S
GPS 2-04 Rocket1 3.9 03:24:12 19° S 03:25:01 21° SSE 03:27:44 10° ESE
ADEOS II 3.2 03:22:03 10° N 03:26:34 30° WNW 03:29:36 17° WSW
IDEFIX/ARIANE 42P 3.4 03:22:40 10° N 03:27:26 35° WNW 03:30:39 18° WSW
ARIANE 5 R/B 3.7 03:24:48 10° NNE 03:29:31 38° E 03:34:09 10° SSE
CBERS-1 4.0 03:27:21 10° NNE 03:32:29 83° WNW 03:37:08 13° SSW
DNEPR-1 R/B 3.5 03:32:35 20° SW 03:35:29 80° WNW 03:40:02 10° NNE
MOS 1-B Rocket 3.8 03:30:47 10° SSE 03:36:24 89° SW 03:42:09 10° NNW
Cosmos 2218 Rocket 4.2 03:30:20 10° N 03:36:36 80° E 03:42:55 10° S
Cosmos 2056 Rocket 3.8 03:33:19 10° S 03:38:24 65° ESE 03:43:37 10° NNE
Cosmos 1892 3.4 03:36:04 10° S 03:39:44 51° E 03:43:25 10° NNE
Cosmos 2228 3.8 03:37:20 10° NNW 03:41:15 33° W 03:44:18 15° SSW
Cosmos 2369 Rocket 2.3 03:38:01 10° NNW 03:43:29 55° WSW 03:48:54 10° S
SL-16 R/B 4.0 03:40:09 10° W 03:44:00 18° NW 03:47:53 10° N
IRS-1D 4.2 03:39:10 10° N 03:44:09 42° WNW 03:48:23 14° SW
OAO 2 Rocket 4.1 03:41:18 16° SW 03:44:35 34° SSE 03:49:01 10° ESE
Cosmos 2251 Rocket 3.8 03:42:33 10° NNW 03:47:32 45° WSW 03:52:32 10° S
Cosmos 2181 Rocket 4.0 03:43:15 10° SSW 03:49:29 71° W 03:55:39 10° N
Cosmos 2058 Rocket 3.1 03:45:20 10° N 03:49:44 82° E 03:54:05 10° S
[s.n.52708] 2.7 03:48:11 18° SW 03:50:06 70° SE 03:52:55 10° NE
[s.n.52707] 2.7 03:48:18 18° SW 03:50:13 70° SE 03:53:02 10° NE
[s.n.52703] 2.7 03:48:24 18° SW 03:50:20 70° SE 03:53:09 10° NE
[s.n.52705] 2.7 03:48:30 18° SW 03:50:26 70° SE 03:53:16 10° NE
[s.n.52706] 2.7 03:48:37 18° SW 03:50:33 70° SE 03:53:22 10° NE
[s.n.52701] 2.7 03:48:43 18° SW 03:50:39 71° SE 03:53:29 10° NE
[s.n.52704] 2.7 03:48:49 18° SW 03:50:46 71° SE 03:53:35 10° NE
[s.n.52699] 2.6 03:48:56 18° SW 03:50:53 71° SE 03:53:42 10° NE
[s.n.52702] 2.6 03:49:02 18° SW 03:51:00 71° SE 03:53:49 10° NE
[s.n.52697] 2.6 03:49:09 18° SW 03:51:06 72° SE 03:53:56 10° NE
[s.n.52700] 2.6 03:49:15 18° SW 03:51:13 72° SE 03:54:02 10° NE
[s.n.52695] 2.6 03:49:22 18° SW 03:51:20 72° SE 03:54:09 10° NE
[s.n.52698] 2.6 03:49:28 18° SW 03:51:27 72° SE 03:54:16 10° NE
[s.n.52693] 2.6 03:49:35 17° SW 03:51:33 73° SE 03:54:23 10° NE
[s.n.52696] 2.6 03:49:41 17° SW 03:51:40 73° SE 03:54:29 10° NE
[s.n.52691] 2.6 03:49:47 17° SW 03:51:47 73° SE 03:54:36 10° NE
[s.n.52689] 2.6 03:49:54 17° SW 03:51:54 73° SE 03:54:43 10° NE
[s.n.52694] 2.6 03:50:01 17° SW 03:52:00 74° SE 03:54:50 10° NE
[s.n.52692] 2.6 03:50:07 17° SW 03:52:07 74° SE 03:54:57 10° NE
[s.n.52687] 2.6 03:50:13 17° SW 03:52:13 74° SE 03:55:03 10° NE
[s.n.52685] 2.6 03:50:20 17° SW 03:52:21 74° SE 03:55:10 10° NE
Cosmos 1656 Rocket 3.6 03:47:08 10° NNW 03:52:27 58° WSW 03:57:44 10° S
[s.n.52690] 2.6 03:50:26 17° SW 03:52:27 75° SE 03:55:17 10° NE
[s.n.52688] 2.6 03:50:33 17° SW 03:52:34 75° SE 03:55:24 10° NE
Cosmos 1959 Rocket 4.5 03:46:18 10° N 03:52:34 80° W 03:58:43 10° S
[s.n.52683] 2.6 03:50:39 17° SW 03:52:41 75° SE 03:55:30 10° NE
Cosmos 1408 2.5 03:49:08 10° S 03:52:46 88° W 03:56:25 10° N
[s.n.52686] 2.6 03:50:46 17° SW 03:52:47 75° SE 03:55:37 10° NE
COSMOS 2455 4.0 03:47:57 11° WSW 03:52:53 30° NW 03:58:08 10° N
[s.n.52681] 2.6 03:50:53 17° SW 03:52:55 76° SE 03:55:45 10° NE
[s.n.52679] 2.6 03:50:59 17° SW 03:53:02 76° SE 03:55:51 10° NE
[s.n.52684] 2.6 03:51:06 17° SW 03:53:09 76° SE 03:55:58 10° NE
[s.n.52682] 2.6 03:51:12 17° SW 03:53:15 76° SE 03:56:05 10° NE
[s.n.52677] 2.6 03:51:19 17° SW 03:53:22 77° SE 03:56:12 10° NE
[s.n.52680] 2.6 03:51:26 17° SW 03:53:30 77° SE 03:56:19 10° NE
[s.n.52675] 2.6 03:51:32 17° SW 03:53:36 77° SE 03:56:26 10° NE
[s.n.52678] 2.6 03:51:39 17° SW 03:53:43 77° SE 03:56:33 10° NE
[s.n.52673] 2.6 03:51:46 17° SW 03:53:50 78° SE 03:56:40 10° NE
IRS-P3 4.4 03:48:29 10° NNE 03:53:51 74° ESE 03:59:09 10° S
[s.n.52676] 2.6 03:51:52 17° SW 03:53:57 78° SE 03:56:47 10° NE
[s.n.52671] 2.6 03:52:00 17° SW 03:54:05 78° SE 03:56:54 10° NE
[s.n.52669] 2.6 03:52:07 16° SW 03:54:11 78° SE 03:57:01 10° NE
[s.n.52674] 2.6 03:52:13 16° SW 03:54:18 79° SE 03:57:09 10° NE
[s.n.52672] 2.6 03:52:19 16° SW 03:54:24 79° SE 03:57:14 10° NE
[s.n.52667] 2.6 03:52:27 16° SW 03:54:32 79° SE 03:57:22 10° NE
[s.n.52665] 2.6 03:52:33 16° SW 03:54:39 80° SE 03:57:30 10° NE
[s.n.52670] 2.6 03:52:40 16° SW 03:54:46 80° SE 03:57:37 10° NE
[s.n.52668] 2.6 03:52:47 16° SW 03:54:53 80° SE 03:57:44 10° NE
Cosmos 1190 Rocket 4.2 03:49:40 10° NNW 03:54:59 78° ENE 04:00:17 10° SSE
[s.n.52666] 2.6 03:52:53 16° SW 03:55:01 80° SE 03:57:51 10° NE
[s.n.52663] 2.6 03:53:00 16° SW 03:55:07 81° SE 03:57:58 10° NE
[s.n.52662] 2.6 03:53:07 16° SW 03:55:14 81° SE 03:58:05 10° NE
[s.n.52664] 2.6 03:53:14 16° SW 03:55:21 81° SE 03:58:12 10° NE
[s.n.52661] 2.6 03:53:21 16° SW 03:55:28 81° SE 03:58:19 10° NE
[s.n.52660] 2.6 03:53:27 16° SW 03:55:35 82° SE 03:58:26 10° NE
[s.n.52656] 2.6 03:53:34 16° SW 03:55:43 82° SE 03:58:33 10° NE
[s.n.52658] 2.6 03:53:41 16° SW 03:55:50 82° SE 03:58:41 10° NE
[s.n.52659] 2.6 03:53:47 16° SW 03:55:57 82° SE 03:58:48 10° NE
[s.n.52657] 2.6 03:53:56 16° SW 03:56:04 83° SE 03:58:55 10° NE
Cosmos 864 Rocket 4.5 03:55:59 10° NNW 04:02:07 67° W 04:08:10 10° S
Cosmos 1603 4.2 04:01:41 10° SW 04:06:56 45° WNW 04:12:22 10° NNE
PAYLOAD A 3.9 04:04:29 10° N 04:09:13 72° WNW 04:14:02 10° SSW
ALOS 2.5 04:12:10 10° N 04:16:44 56° WNW 04:21:16 10° SSW
CZ-2C R/B 2.7 04:14:46 10° N 04:19:47 57° WNW 04:24:38 10° SSW
Cosmos 1869 3.5 04:17:04 10° N 04:21:00 73° E 04:24:51 10° SSE
